{"data":{"norad_id":63435,"epoch":"2026-05-25T03:19:28.718976Z","epoch_age_seconds":73467,"freshness":"FRESH","line1":"1 63435U 25069C   26145.13852684  .00253825  00000+0  56717-2 0  9990","line2":"2 63435  53.1577 144.9494 0001415 120.7378 239.3767 15.42052583 65143","mean_motion":15.42052583,"eccentricity":0.0001415,"inclination_deg":53.1577,"raan_deg":144.9494,"arg_perigee_deg":120.7378,"mean_anomaly_deg":239.3767,"bstar":0.0056717,"rev_number":6514,"period_min":93.382029632124,"perigee_km":439.08749122251,"apogee_km":441.01703878451,"semimajor_km":6818.1892650035,"source":"CELESTRAK","updated_at":"2026-05-25T13:38:19.997342Z"}}